Time,TemperatureF,DewpointF,PressureIn,WindDirection,WindDirectionDegrees,WindSpeedMPH,WindSpeedGustMPH,Humidity,HourlyPrecipIn,Conditions,Clouds,dailyrainin,SoftwareType,DateUTC
2013-03-04 07:35:00,38.2,37.7,30.02,ENE,73,0.0,1.0,98,0.00,,,0.00,Wunderground v.1.15,2013-03-04 15:35:00,
2013-03-04 08:05:00,40.5,39.2,30.02,NE,47,0.0,0.0,95,0.00,,,0.00,Wunderground v.1.15,2013-03-04 16:05:00,
2013-03-04 08:35:00,43.1,40.4,30.03,East,86,0.0,0.0,90,0.00,,,0.00,Wunderground v.1.15,2013-03-04 16:35:00,
2013-03-04 09:05:00,45.1,40.9,30.02,ENE,69,1.0,2.0,85,0.00,,,0.00,Wunderground v.1.15,2013-03-04 17:05:00,
2013-03-04 09:35:00,44.8,40.9,30.00,East,92,1.0,2.0,86,0.00,,,0.00,Wunderground v.1.15,2013-03-04 17:35:00,
2013-03-04 10:05:00,47.4,42.2,30.01,East,83,1.0,1.0,82,0.00,,,0.00,Wunderground v.1.15,2013-03-04 18:05:00,
2013-03-04 10:35:00,49.8,43.9,30.00,ENE,64,0.0,0.0,80,0.00,,,0.00,Wunderground v.1.15,2013-03-04 18:35:00,
2013-03-04 11:05:00,52.6,45.9,30.00,East,99,0.0,0.0,78,0.00,,,0.00,Wunderground v.1.15,2013-03-04 19:05:00,
2013-03-04 11:35:00,53.6,46.9,30.00,ESE,112,0.0,0.0,78,0.00,,,0.00,Wunderground v.1.15,2013-03-04 19:35:00,
2013-03-04 12:05:00,52.8,48.1,30.00,SW,233,0.0,0.0,84,0.00,,,0.00,Wunderground v.1.15,2013-03-04 20:05:00,
2013-03-04 12:35:00,53.1,49.0,29.99,WNW,292,0.0,0.0,86,0.00,,,0.00,Wunderground v.1.15,2013-03-04 20:35:00,
2013-03-04 13:05:00,52.9,48.8,29.98,SW,216,0.0,0.0,86,0.00,,,0.00,Wunderground v.1.15,2013-03-04 21:05:00,
2013-03-04 13:35:00,53.3,49.2,29.97,SW,232,0.0,0.0,86,0.00,,,0.00,Wunderground v.1.15,2013-03-04 21:35:00,
2013-03-04 14:05:00,55.4,50.0,29.96,SW,216,0.0,0.0,82,0.00,,,0.00,Wunderground v.1.15,2013-03-04 22:05:00,
2013-03-04 14:35:00,55.7,50.6,29.96,East,96,0.0,0.0,83,0.00,,,0.00,Wunderground v.1.15,2013-03-04 22:35:00,
2013-03-04 15:05:00,53.6,49.5,29.95,SW,232,0.0,0.0,86,0.00,,,0.00,Wunderground v.1.15,2013-03-04 23:05:00,
2013-03-04 15:35:00,51.7,48.3,29.94,SW,229,0.0,0.0,88,0.00,,,0.00,Wunderground v.1.15,2013-03-04 23:35:00,
2013-03-04 16:05:00,50.4,47.0,29.95,SW,232,0.0,0.0,88,0.00,,,0.00,Wunderground v.1.15,2013-03-05 00:05:00,
2013-03-04 16:35:00,51.4,46.7,29.95,WSW,250,0.0,0.0,84,0.00,,,0.00,Wunderground v.1.15,2013-03-05 00:35:00,
2013-03-04 17:05:00,49.8,46.1,29.95,West,260,0.0,0.0,87,0.00,,,0.00,Wunderground v.1.15,2013-03-05 01:05:00,
2013-03-04 17:35:00,48.6,45.8,29.94,WSW,247,0.0,0.0,90,0.00,,,0.00,Wunderground v.1.15,2013-03-05 01:35:00,
2013-03-04 18:05:00,47.6,45.4,29.94,SW,216,0.0,0.0,92,0.00,,,0.00,Wunderground v.1.15,2013-03-05 02:05:00,
2013-03-04 18:35:00,46.2,44.3,29.93,ESE,102,0.0,0.0,93,0.00,,,0.00,Wunderground v.1.15,2013-03-05 02:35:00,
2013-03-04 19:05:00,45.4,44.1,29.92,East,83,0.0,0.0,95,0.00,,,0.00,Wunderground v.1.15,2013-03-05 03:05:00,
2013-03-04 19:35:00,44.5,43.7,29.91,East,83,0.0,0.0,97,0.00,,,0.00,Wunderground v.1.15,2013-03-05 03:35:00,
2013-03-04 20:05:00,43.8,43.5,29.90,East,83,0.0,0.0,99,0.00,,,0.00,Wunderground v.1.15,2013-03-05 04:05:00,
2013-03-04 20:35:00,42.5,42.2,29.90,East,83,0.0,0.0,99,0.00,,,0.00,Wunderground v.1.15,2013-03-05 04:35:00,
2013-03-04 21:05:00,40.8,40.8,29.89,East,83,0.0,0.0,100,0.00,,,0.00,Wunderground v.1.15,2013-03-05 05:05:00,
2013-03-04 21:35:00,40.2,40.2,29.88,East,83,0.0,0.0,100,0.00,,,0.00,Wunderground v.1.15,2013-03-05 05:35:00,
2013-03-04 22:05:00,40.5,40.5,29.87,ENE,72,0.0,0.0,100,0.00,,,0.00,Wunderground v.1.15,2013-03-05 06:05:00,
2013-03-04 22:35:00,41.1,41.1,29.86,NE,55,0.0,0.0,100,0.00,,,0.00,Wunderground v.1.15,2013-03-05 06:35:00,
2013-03-04 23:05:00,41.3,41.3,29.85,East,88,1.0,2.0,100,0.00,,,0.00,Wunderground v.1.15,2013-03-05 07:05:00,
2013-03-04 23:35:00,41.6,41.6,29.84,NNE,32,0.0,0.0,100,0.00,,,0.00,Wunderground v.1.15,2013-03-05 07:35:00,